Kuchera_Ratio
6.1 5.1 6.4 6.6 5.4 5.0 7.5 6.1 11.7 5.4 5.7 1.5 0.0 1.4 0.1 0.0 0.3 1.0 1.3 0.0 0.0 0.0 0.0 0.0 0.0 0.0 0.0 0.0 0.0 0.0 0.0 0.0 0.0 0.0 0.0 0.0 0.0 0.0 0.0 0.0 0.0 0.0 0.0 0.0
7.8 6.1 6.7 8.8 5.4 5.1 5.7 5.9 6.7 6.3 5.4 0.0 0.0 0.0 0.0 0.0 0.0 0.0 0.0 0.0 0.0 0.0 0.0 0.3 0.4 0.1 0.0 0.0 0.0 0.0 0.0 0.1 0.1 0.2 0.4 0.7 0.6 0.6 0.8 0.6 0.7 0.5 0.7 0.1
12.1 6.8 6.8 10.8 3.1 4.5 3.6 1.1 2.0 6.8 0.2 0.0 0.0 0.0 0.0 0.0 0.0 0.0 0.0 0.0 0.0 0.0 0.0 0.1 0.4 0.5 0.5 0.7 0.6 0.4 0.6 0.9 1.2 1.6 1.9 2.2 2.4 2.7 2.8 2.7 2.7 2.7 2.4 2.3
13.1 10.2 13.5 3.5 0.0 0.0 0.6 0.0 0.0 0.0 0.0 0.0 0.0 0.0 0.0 0.0 0.0 0.0 0.0 0.0 0.0 0.0 0.0 0.0 0.4 0.5 0.5 0.7 0.8 0.7 0.8 1.1 0.9 1.5 2.1 1.9 2.2 2.5 2.6 3.0 4.0 4.8 4.5 4.1
13.2 13.7 6.2 2.1 1.6 1.2 4.2 2.1 0.0 0.0 0.0 0.0 0.0 0.0 0.0 0.0 0.0 0.0 0.0 0.0 0.0 0.0 0.0 0.0 0.2 0.6 0.2 0.1 1.3 2.4 3.5 3.6 3.4 3.9 4.6 4.6 5.0 5.0 4.7 4.9 5.1 4.4 4.3 5.2
13.6 13.7 14.9 3.6 0.0 0.0 0.0 8.4 0.0 0.0 0.0 0.0 0.5 6.2 0.0 0.0 0.0 0.0 0.0 0.0 0.0 0.0 0.0 0.0 0.5 1.0 2.1 3.4 4.9 5.8 5.4 5.1 5.4 6.0 6.7 7.5 7.7 7.3 7.4 8.3 8.3 7.4 7.0 5.3
13.1 14.5 8.8 0.0 0.0 0.0 11.6 4.0 0.0 0.0 0.0 0.0 0.6 0.0 0.0 0.0 0.0 0.0 0.0 0.0 0.0 0.0 0.9 2.5 3.3 4.0 5.2 6.8 8.3 7.0 7.4 7.4 7.3 7.2 7.9 7.6 7.8 7.9 8.5 8.0 7.8 7.8 8.2 7.1
13.2 14.4 14.0 0.0 0.0 4.2 0.0 0.0 0.0 0.0 0.0 0.0 0.0 0.0 0.0 0.0 0.0 0.0 0.0 0.2 0.6 2.2 3.4 4.8 6.3 7.5 7.6 8.0 8.2 7.7 7.7 7.7 7.7 7.7 8.1 7.6 9.3 9.8 10.4 11.6 12.1 11.1 9.9 8.9
5.3 3.4 0.0 0.0 0.0 0.0 0.0 0.0 0.0 0.0 0.0 0.0 0.0 0.0 0.0 1.5 1.3 1.4 1.9 3.0 4.5 4.9 5.5 5.7 7.1 8.2 9.2 10.2 9.5 9.6 10.1 10.7 10.7 10.2 10.2 10.0 10.3 11.1 12.1 11.8 12.9 12.8 11.5 12.1
3.9 0.0 0.0 0.0 0.0 0.0 0.0 0.0 0.0 0.0 0.0 0.0 0.0 0.0 0.0 1.7 2.8 3.2 4.0 4.7 5.6 6.7 7.7 8.7 9.8 10.1 10.8 10.7 10.9 11.5 12.4 12.4 12.1 12.3 12.0 11.4 11.6 10.4 12.1 12.4 12.8 11.2 11.1 12.2
5.4 0.0 0.0 0.0 0.0 0.0 0.0 0.0 0.0 0.0 0.0 0.0 0.0 0.0 0.6 2.2 3.7 4.5 5.3 6.4 7.2 7.3 7.5 8.6 10.2 11.5 11.3 11.8 12.2 12.9 13.1 13.1 13.1 12.7 12.8 13.0 12.2 12.5 10.5 10.9 11.2 9.2 9.5 9.4
6.0 0.0 0.0 0.0 0.0 0.0 0.0 0.0 0.0 0.0 0.0 0.0 0.0 0.3 1.4 3.0 4.2 5.3 6.3 7.1 7.7 8.8 10.2 11.5 12.1 12.5 12.4 12.4 12.9 13.4 13.2 12.8 12.9 12.2 13.1 12.6 12.7 12.5 6.2 4.5 2.6 1.9 1.2 2.3
0.0 0.0 0.0 0.0 0.0 0.0 0.0 0.0 0.0 0.0 0.0 0.0 0.3 1.6 3.1 4.8 5.6 6.5 7.4 8.0 9.3 10.9 12.1 12.7 13.0 13.5 12.9 12.9 12.8 13.2 14.1 13.1 12.3 12.0 12.7 13.1 12.5 12.3 12.8 8.3 4.0 3.4 2.7 1.6
0.0 0.0 0.8 0.0 0.4 0.0 0.0 0.0 0.0 0.0 0.3 1.6 2.8 4.4 5.1 6.4 7.2 8.1 9.1 10.4 11.9 12.4 12.9 13.2 13.8 14.0 13.4 13.3 12.8 13.6 13.8 10.9 13.1 13.6 13.2 11.9 11.3 11.5 11.8 12.4 12.5 10.8 4.6 3.2
0.0 1.4 1.3 1.4 0.3 0.9 0.0 0.0 0.0 0.0 1.6 3.8 5.0 5.8 6.9 8.1 8.9 9.7 10.9 12.2 12.7 13.3 13.5 13.7 14.3 14.2 13.1 13.4 12.4 13.4 13.4 13.5 12.2 10.7 11.8 10.9 12.0 12.9 12.2 12.1 12.1 11.6 11.2 8.2
2.6 2.9 3.3 3.8 1.5 2.9 1.9 1.2 1.3 2.8 4.0 4.7 5.7 6.8 7.9 8.6 9.5 11.1 12.3 12.9 13.2 13.6 13.5 14.0 14.2 13.2 12.7 13.0 13.0 13.4 14.0 11.7 10.6 11.7 12.3 12.5 12.5 12.7 12.9 12.9 12.7 12.1 11.5 10.9
3.8 4.4 5.1 4.6 2.4 1.8 2.1 2.6 3.2 3.7 4.6 5.7 6.5 7.6 8.4 9.4 11.1 12.3 12.8 13.4 13.7 13.9 13.7 13.5 13.4 12.2 12.1 12.0 13.2 13.5 14.0 13.3 10.2 13.2 12.9 12.1 12.4 12.9 13.0 13.3 13.2 12.8 12.3 9.7
2.4 3.1 4.0 3.5 2.4 2.2 3.1 4.3 5.1 5.4 5.3 6.2 7.5 8.4 9.4 11.0 12.2 12.9 13.4 13.8 14.0 14.0 13.6 12.8 12.8 12.3 11.3 12.1 12.7 13.0 12.3 13.3 13.1 13.2 12.5 12.5 12.7 12.6 13.1 13.5 13.3 13.1 12.3 11.2
2.8 2.7 2.5 2.1 2.1 2.9 3.4 3.9 5.1 6.2 7.1 7.7 8.6 9.4 10.7 12.0 12.6 13.1 13.6 14.0 14.0 14.4 15.0 14.7 12.6 11.7 13.0 12.6 11.6 12.5 14.1 13.8 13.6 14.1 12.7 12.4 13.5 13.6 14.1 13.8 13.5 13.4 13.0 12.8
3.8 3.6 2.5 2.1 2.5 3.6 4.3 5.5 6.1 6.8 7.5 8.8 9.6 10.7 12.0 12.9 13.7 14.1 14.3 14.1 14.8 15.4 14.9 14.5 13.0 13.2 13.3 13.6 11.7 13.1 13.2 14.1 13.4 13.4 13.4 13.4 14.6 15.1 14.5 13.8 13.7 13.8 13.5 13.2
2.2 3.1 3.0 2.9 3.4 5.2 6.0 6.7 6.9 7.9 8.8 9.7 11.3 12.1 12.6 13.3 13.8 14.3 14.6 14.6 14.3 13.9 13.9 12.2 13.5 13.5 13.5 12.6 11.5 14.1 15.6 14.4 14.1 14.3 14.9 15.1 15.3 15.3 15.0 15.0 15.0 15.0 14.7 14.4
1.6 3.3 4.2 4.7 5.2 5.4 6.5 7.3 7.9 8.7 9.4 10.4 11.7 12.9 13.7 13.7 14.2 14.7 15.2 15.0 14.3 12.4 12.9 13.8 13.8 13.2 12.1 8.0 14.2 15.8 16.7 16.2 15.5 15.2 15.6 15.4 15.6 15.7 15.7 15.8 16.4 16.5 16.1 16.1
1.7 4.0 5.5 6.5 6.6 7.2 7.9 8.2 8.6 9.4 10.6 11.6 12.2 12.9 13.6 14.4 14.6 15.2 15.1 15.3 15.0 13.7 13.2 14.1 13.1 10.7 9.5 15.0 16.2 16.9 16.7 16.7 16.2 16.1 16.0 15.9 15.5 15.7 16.1 16.9 17.0 16.7 17.3 17.1
1.6 3.7 5.3 7.5 8.9 9.2 9.1 8.3 9.6 10.3 11.5 12.5 13.1 13.1 13.9 14.5 15.1 15.6 15.9 13.7 13.0 13.7 13.8 14.2 13.4 11.6 11.1 17.9 17.9 18.6 18.2 17.4 16.8 17.1 16.3 14.5 16.3 16.0 16.9 17.0 17.1 16.8 17.1 17.2
1.1 3.3 5.8 7.4 8.1 7.2 8.1 10.4 11.6 11.5 12.2 12.8 13.4 13.8 14.6 15.2 15.8 16.2 16.4 16.5 14.4 14.4 15.8 14.4 13.3 13.8 17.3 18.1 18.2 19.1 18.3 17.9 17.4 16.2 17.1 17.5 16.9 17.3 17.2 17.0 17.0 17.0 16.3 16.5
0.8 1.2 2.8 5.1 6.4 7.6 9.1 11.4 11.6 11.9 12.7 13.1 13.5 14.2 14.8 15.2 16.2 15.6 16.8 15.9 16.8 15.8 17.3 17.0 17.8 17.5 18.7 18.5 18.7 18.8 18.8 18.5 18.2 17.9 16.7 17.4 17.6 17.8 17.2 17.0 16.8 16.7 16.7 16.7
2.2 3.0 4.8 6.4 8.1 9.7 10.7 11.4 12.1 11.8 12.4 13.2 13.8 14.8 15.1 15.6 16.4 16.0 15.1 17.0 17.4 17.7 17.6 17.7 18.6 18.9 18.8 18.9 18.9 19.1 19.0 18.8 17.7 17.5 17.3 18.5 18.4 18.0 17.4 17.2 16.6 16.1 15.6 15.4